Back to catalog

COSMOS 1656

AliveMilitaryLEO
NORAD 15755·PAYLOAD·🇷🇺 Russia

Launched May 30, 1985 from Baikonur Cosmodrome

Loading…

Next Passes (next 24 hours)

TLE

FreshSource: Space-Track

Epoch: Sep 14, 2026, 12:16 UTC

1 15755U 85042A   26257.51145653  .00000066  00000-0  52253-4 0  9997
2 15755  71.1098  87.7490 0036089 208.5480 151.3672 14.21019080139856

Track COSMOS 1656 in real time with AllMySat

Download on the App Store